KC1TWD Weather Reports


time (UTC)temp
C
wind
direction
speed
KPH
gust
KPH
rain 1hr
cm
rain 24hr
cm
rain mn
cm
humidity
%
barometer
mb
20260507070230 7 255 0.0 0.0 0.00 0.00 0.00 97 1007.0
20260507065726 7 168 0.0 0.0 0.00 0.00 0.00 97 1007.0
20260507065223 7 168 0.0 0.0 0.00 0.00 0.00 97 1007.0
20260507064721 8 194 0.0 0.0 0.00 0.00 0.00 97 1007.2
20260507064220 8 133 0.0 0.0 0.00 0.00 0.00 96 1007.1
20260507063716 8 145 0.0 0.0 0.00 0.00 0.00 95 1007.0
20260507063213 8 207 0.0 0.0 0.00 0.00 0.00 95 1007.4
20260507062710 8 197 0.0 0.0 0.00 0.00 0.00 94 1007.5
20260507062208 8 187 0.0 1.6 0.00 0.00 0.00 93 1007.4
20260507061705 8 163 0.0 0.0 0.00 0.00 0.00 92 1007.6
20260507061203 8 122 1.6 1.6 0.00 0.00 0.00 95 1007.3
20260507060701 8 42 0.0 1.6 0.00 0.00 0.00 96 1007.5
20260507060157 8 246 0.0 0.0 0.00 0.00 0.00 96 1007.4
20260507055653 8 251 0.0 0.0 0.00 0.00 0.00 96 1007.2
20260507055149 8 250 0.0 0.0 0.00 0.00 0.00 96 1007.4
20260507054645 8 286 0.0 0.0 0.00 0.00 0.00 97 1007.4
20260507054142 8 99 0.0 1.6 0.00 0.00 0.00 98 1007.4
20260507053640 8 157 0.0 0.0 0.00 0.00 0.00 98 1007.6
20260507053138 8 221 0.0 1.6 0.00 0.00 0.00 98 1007.4
20260507052636 8 342 0.0 0.0 0.00 0.00 0.00 98 1007.6
20260507052132 8 148 0.0 0.0 0.00 0.00 0.00 98 1007.4
20260507051630 8 155 0.0 0.0 0.00 0.00 0.00 97 1007.3
20260507051126 8 162 0.0 0.0 0.00 0.00 0.00 97 1007.3
20260507050623 8 128 0.0 0.0 0.00 0.00 0.00 96 1007.0
20260507050120 8 139 0.0 0.0 0.00 0.00 0.00 96 1007.3
20260507045617 8 117 0.0 0.0 0.00 0.00 0.00 96 1007.0
20260507045114 8 149 0.0 0.0 0.00 0.00 0.00 96 1007.0
20260507044610 8 150 0.0 0.0 0.00 0.00 0.00 96 1007.2
20260507044108 8 246 0.0 3.2 0.00 0.00 0.00 96 1007.3
20260507043603 8 167 0.0 0.0 0.00 0.00 0.00 97 1007.3
20260507043101 8 182 0.0 0.0 0.00 0.00 0.00 96 1007.3
20260507042556 9 190 0.0 0.0 0.00 0.00 0.00 96 1006.9
20260507042052 9 72 0.0 1.6 0.00 0.00 0.00 95 1006.9
20260507041549 9 158 0.0 0.0 0.00 0.00 0.00 95 1007.6
20260507041046 9 270 0.0 0.0 0.00 0.00 0.00 95 1007.7
20260507040542 9 105 0.0 0.0 0.00 0.00 0.00 94 1007.3
20260507040039 9 149 0.0 3.2 0.00 0.56 0.56 94 1007.6
20260507035535 9 303 0.0 1.6 0.00 0.56 0.56 95 1007.5
20260507035031 9 291 0.0 3.2 0.00 0.56 0.56 94 1007.3
20260507034528 9 262 0.0 0.0 0.00 0.56 0.56 95 1007.2
20260507034026 9 319 0.0 0.0 0.00 0.56 0.56 95 1006.9
20260507033524 9 229 0.0 4.8 0.00 0.56 0.56 95 1007.0
20260507033021 10 284 1.6 3.2 0.00 0.56 0.56 96 1007.1
20260507032518 10 299 3.2 3.2 0.00 0.56 0.56 97 1007.0
20260507032014 10 271 0.0 0.0 0.00 0.56 0.56 97 1006.9
20260507031510 10 190 0.0 0.0 0.00 0.56 0.56 97 1006.8
20260507031008 10 237 0.0 1.6 0.00 0.56 0.56 97 1007.0
20260507030504 10 283 0.0 0.0 0.00 0.56 0.56 97 1007.0
20260507030002 10 256 0.0 1.6 0.13 0.56 0.56 97 1007.0
20260507025459 10 210 0.0 1.6 0.13 0.56 0.56 97 1007.0
20260507024956 10 218 0.0 0.0 0.18 0.53 0.53 97 1007.1
20260507024454 11 205 0.0 0.0 0.18 0.53 0.53 96 1007.2
20260507023949 11 145 0.0 0.0 0.00 0.51 0.51 96 1007.1
20260507023446 11 305 1.6 4.8 0.13 0.51 0.51 95 1006.9
20260507022943 11 59 0.0 1.6 0.13 0.51 0.51 96 1006.9
20260507022441 11 304 3.2 4.8 0.00 0.48 0.48 96 1007.0
20260507021936 11 292 3.2 3.2 0.00 0.48 0.48 97 1006.7
20260507021431 11 240 0.0 1.6 0.00 0.48 0.48 98 1006.6
20260507020930 12 14 0.0 1.6 0.00 0.48 0.48 98 1006.4
20260507020426 12 150 0.0 1.6 0.00 0.48 0.48 98 1006.3
20260507015923 12 28 0.0 1.6 0.00 0.48 0.48 99 1006.2
20260507015421 12 46 0.0 0.0 0.00 0.48 0.48 99 1006.1
20260507014918 13 179 0.0 0.0 0.00 0.48 0.48 99 1005.9
20260507014414 13 51 0.0 0.0 0.18 0.48 0.48 99 1005.9
20260507013910 13 52 0.0 0.0 0.18 0.48 0.48 98 1005.8
20260507013408 13 178 0.0 0.0 0.00 0.46 0.46 98 1005.7
20260507012906 13 203 0.0 0.0 0.00 0.46 0.46 98 1005.8
20260507012401 13 193 0.0 0.0 0.18 0.46 0.46 98 1005.5
20260507011859 13 152 0.0 0.0 0.00 0.43 0.43 98 1005.8
20260507011355 13 100 0.0 0.0 0.00 0.43 0.43 98 1005.4
20260507010855 13 101 0.0 0.0 0.00 0.43 0.43 98 1005.7
20260507010351 14 77 0.0 0.0 0.30 0.43 0.43 98 1005.4
20260507005848 14 336 1.6 3.2 0.61 0.43 0.43 98 1005.5
20260507005345 15 248 0.0 0.0 0.30 0.38 0.38 99 1005.3
20260507004842 15 330 0.0 1.6 0.00 0.33 0.33 98 1005.2
20260507004339 15 205 0.0 0.0 0.00 0.33 0.33 98 1004.9
20260507003836 15 169 0.0 0.0 0.00 0.33 0.33 98 1004.8
20260507003331 15 166 0.0 0.0 0.00 0.33 0.33 97 1004.7
20260507002826 15 164 0.0 0.0 0.00 0.33 0.33 97 1004.7
20260507002323 15 163 0.0 0.0 0.00 0.33 0.33 97 1004.5
20260507001820 15 189 0.0 0.0 0.00 0.33 0.33 96 1004.4
20260507001317 15 175 0.0 0.0 0.00 0.33 0.33 96 1004.6
20260507000813 15 187 0.0 0.0 0.00 0.33 0.33 96 1004.6
20260507000309 15 182 0.0 0.0 0.00 0.33 0.33 95 1004.5
20260506235807 15 171 0.0 0.0 0.00 0.33 0.33 95 1004.4
20260506235306 15 104 0.0 1.6 0.00 0.33 0.33 95 1004.4
20260506234759 15 160 0.0 0.0 0.00 0.33 0.33 94 1004.3
20260506234257 15 246 1.6 4.8 0.00 0.33 0.33 94 1004.2
20260506233754 15 202 0.0 0.0 0.00 0.33 0.33 95 1004.1
20260506233250 15 178 0.0 0.0 0.00 0.33 0.33 95 1004.2
20260506232747 15 178 0.0 0.0 0.00 0.33 0.33 94 1004.2
20260506232241 15 189 0.0 1.6 0.00 0.33 0.33 94 1004.3
20260506231739 15 202 0.0 1.6 0.00 0.33 0.33 94 1004.2
20260506231238 15 103 3.2 3.2 0.00 0.33 0.33 93 1004.3
20260506230734 16 155 0.0 0.0 0.00 0.33 0.33 93 1004.5
20260506230231 15 131 1.6 3.2 0.00 0.33 0.33 93 1004.4
20260506225727 15 99 1.6 3.2 0.00 0.33 0.33 93 1004.5
20260506225224 16 272 0.0 0.0 0.00 0.33 0.33 93 1004.4
20260506224721 16 124 3.2 4.8 0.00 0.33 0.33 92 1004.5
20260506224218 15 136 1.6 3.2 0.00 0.33 0.33 93 1004.4
20260506223714 16 158 0.0 0.0 0.00 0.33 0.33 94 1004.2
20260506223210 16 149 0.0 0.0 0.00 0.33 0.33 93 1004.4
20260506222707 16 125 0.0 0.0 0.00 0.33 0.33 93 1004.4
20260506222202 16 338 0.0 1.6 0.00 0.33 0.33 92 1004.4
20260506221701 16 109 3.2 6.4 0.00 0.33 0.33 92 1004.3
20260506221158 16 88 1.6 1.6 0.00 0.33 0.33 94 1004.4
20260506220655 16 164 0.0 1.6 0.00 0.33 0.33 92 1004.2
20260506220150 16 146 1.6 1.6 0.00 0.33 0.33 93 1004.4
20260506215647 16 136 1.6 1.6 0.00 0.33 0.33 94 1004.4
20260506215142 16 168 0.0 0.0 0.00 0.33 0.33 94 1004.7
20260506214639 16 156 1.6 3.2 0.00 0.33 0.33 94 1004.5
20260506214137 16 136 1.6 3.2 0.00 0.33 0.33 95 1004.4
20260506213635 16 193 0.0 0.0 0.00 0.33 0.33 96 1004.6
20260506213132 16 127 0.0 1.6 0.00 0.33 0.33 95 1004.6
20260506212630 16 131 1.6 1.6 0.00 0.33 0.33 96 1004.6
20260506212124 16 182 0.0 0.0 0.00 0.33 0.33 97 1004.7
20260506211620 16 160 0.0 0.0 0.00 0.33 0.33 97 1004.8
20260506211117 16 160 0.0 1.6 0.00 0.33 0.33 97 1004.8
20260506210614 16 187 1.6 1.6 0.00 0.33 0.33 97 1004.9
20260506210110 16 119 0.0 0.0 0.13 0.33 0.33 97 1004.8
20260506205607 16 228 0.0 1.6 0.13 0.33 0.33 97 1004.7
20260506205102 16 135 0.0 1.6 0.00 0.30 0.30 97 1004.7
20260506204600 16 164 0.0 1.6 0.00 0.30 0.30 96 1004.8
20260506204057 16 219 0.0 3.2 0.00 0.30 0.30 96 1005.0
20260506203555 16 133 0.0 1.6 0.00 0.30 0.30 97 1004.9
20260506203052 16 163 0.0 1.6 0.00 0.30 0.30 96 1005.0
20260506202549 16 158 0.0 0.0 0.00 0.30 0.30 96 1005.1
20260506202045 16 265 0.0 1.6 0.00 0.30 0.30 96 1005.0
20260506201543 16 131 0.0 3.2 0.00 0.30 0.30 96 1005.1
20260506201040 16 107 1.6 3.2 0.18 0.30 0.30 97 1005.0
20260506200536 16 87 0.0 1.6 0.18 0.30 0.30 97 1004.9
20260506200033 16 179 0.0 3.2 0.00 0.28 0.28 97 1005.0
20260506195530 16 147 0.0 1.6 0.00 0.28 0.28 98 1005.0
20260506195026 16 154 0.0 0.0 0.13 0.28 0.28 98 1005.0
20260506194524 16 309 0.0 0.0 0.13 0.28 0.28 97 1005.3
20260506194020 16 156 0.0 0.0 0.18 0.25 0.25 97 1005.7
20260506193517 16 142 0.0 0.0 0.30 0.25 0.25 97 1005.4
20260506193014 16 137 0.0 0.0 0.13 0.23 0.23 97 1005.5
20260506192511 16 132 0.0 0.0 0.00 0.20 0.20 97 1005.5
20260506192007 16 121 0.0 0.0 0.00 0.20 0.20 96 1005.5
20260506191504 16 159 0.0 0.0 0.00 0.20 0.20 96 1005.5
20260506191000 16 138 0.0 0.0 0.00 0.20 0.20 96 1005.4
20260506190457 16 159 0.0 0.0 0.00 0.20 0.20 96 1005.5
20260506185954 16 134 0.0 0.0 0.18 0.20 0.20 97 1005.4
20260506185451 16 89 0.0 0.0 0.00 0.18 0.18 96 1005.4
20260506184948 16 64 0.0 0.0 0.00 0.18 0.18 96 1005.6
20260506184445 16 153 0.0 0.0 0.00 0.18 0.18 97 1005.8
20260506183942 16 177 0.0 0.0 0.00 0.18 0.18 97 1006.2
20260506183437 16 5 0.0 0.0 0.18 0.18 0.18 97 1006.1
20260506182935 16 142 1.6 1.6 0.30 0.18 0.18 96 1006.2
20260506182432 16 114 0.0 0.0 0.00 0.13 0.13 97 1006.4
20260506181929 16 129 0.0 1.6 0.00 0.13 0.13 96 1006.6
20260506181427 16 135 0.0 0.0 0.18 0.13 0.13 96 1006.6
20260506180924 16 236 0.0 0.0 0.18 0.13 0.13 95 1006.6
20260506180420 16 130 0.0 0.0 0.13 0.10 0.10 95 1006.7
20260506175917 16 145 0.0 0.0 0.13 0.10 0.10 94 1006.6
20260506175414 16 147 0.0 0.0 0.18 0.08 0.08 94 1006.7
20260506174911 16 176 0.0 0.0 0.18 0.08 0.08 93 1006.7
20260506174408 16 184 0.0 0.0 0.00 0.05 0.05 93 1007.0
20260506173905 16 94 0.0 0.0 0.13 0.05 0.05 92 1006.8
20260506173402 17 155 0.0 0.0 0.13 0.05 0.05 91 1007.0
20260506172859 17 238 0.0 0.0 0.00 0.03 0.03 89 1007.0
20260506172356 17 208 0.0 0.0 0.18 0.03 0.03 88 1006.8
20260506171853 17 197 0.0 0.0 0.18 0.03 0.03 85 1007.0
20260506171350 17 134 0.0 0.0 0.00 0.00 0.00 83 1006.9
20260506170848 18 114 0.0 1.6 0.00 0.00 0.00 82 1006.7
20260506170344 18 135 1.6 1.6 0.00 0.00 0.00 79 1006.7
20260506165843 18 130 3.2 6.4 0.00 0.00 0.00 75 1006.8
20260506165341 19 156 1.6 1.6 0.00 0.00 0.00 73 1007.0
20260506164837 20 259 1.6 3.2 0.00 0.00 0.00 72 1006.6
20260506164334 20 163 1.6 4.8 0.00 0.00 0.00 71 1006.6
20260506163831 20 180 3.2 3.2 0.00 0.00 0.00 70 1006.5
20260506163325 20 194 1.6 3.2 0.00 0.00 0.00 69 1006.7
20260506162821 20 217 3.2 3.2 0.00 0.00 0.00 68 1006.7
20260506162320 20 113 4.8 6.4 0.00 0.00 0.00 68 1006.9
20260506161817 20 208 1.6 1.6 0.00 0.00 0.00 69 1006.9
20260506161314 20 119 0.0 4.8 0.00 0.00 0.00 68 1007.0
20260506160806 20 231 0.0 1.6 0.00 0.00 0.00 68 1007.2
20260506160302 20 134 0.0 3.2 0.00 0.00 0.00 69 1007.2
20260506155801 20 135 3.2 3.2 0.00 0.00 0.00 69 1007.1
20260506155257 20 111 1.6 3.2 0.00 0.00 0.00 69 1007.5
20260506153404 20 244 3.2 4.8 0.00 0.00 0.00 71 1007.6
20260506152901 20 158 0.0 1.6 0.00 0.00 0.00 70 1007.9
20260506152358 20 70 0.0 0.0 0.00 0.00 0.00 70 1007.9
20260506151856 20 168 1.6 9.7 0.00 0.00 0.00 70 1008.0
20260506151353 20 96 3.2 6.4 0.00 0.00 0.00 70 1007.9
20260506150850 20 162 1.6 3.2 0.00 0.00 0.00 70 1008.0
20260506150347 20 121 0.0 1.6 0.00 0.00 0.00 74 1008.0
20260506145844 20 169 0.0 1.6 0.00 0.00 0.00 70 1007.9
20260506145340 19 280 0.0 1.6 0.00 0.00 0.00 72 1007.7
20260506144838 19 177 0.0 1.6 0.00 0.00 0.00 72 1007.8
20260506144334 19 180 3.2 4.8 0.00 0.00 0.00 71 1007.6
20260506143833 19 192 3.2 4.8 0.00 0.00 0.00 71 1007.9
20260506143329 19 184 1.6 1.6 0.00 0.00 0.00 72 1008.1
20260506142827 19 139 3.2 4.8 0.00 0.00 0.00 71 1008.0
20260506142325 19 194 1.6 3.2 0.00 0.00 0.00 71 1007.8
20260506141823 19 163 1.6 1.6 0.00 0.00 0.00 72 1007.8
20260506141321 19 85 4.8 6.4 0.00 0.00 0.00 71 1007.7
20260506140819 19 205 0.0 0.0 0.00 0.00 0.00 73 1007.7
20260506140315 19 123 1.6 3.2 0.00 0.00 0.00 73 1007.7
20260506135812 19 84 0.0 1.6 0.00 0.00 0.00 73 1007.6
20260506135308 18 88 0.0 1.6 0.00 0.00 0.00 75 1007.5
20260506134805 18 128 3.2 3.2 0.00 0.00 0.00 74 1007.5
20260506134302 18 248 0.0 3.2 0.00 0.00 0.00 76 1007.8
20260506133759 18 261 0.0 0.0 0.00 0.00 0.00 76 1007.6
20260506133256 17 310 0.0 3.2 0.00 0.00 0.00 78 1007.9
20260506132752 17 243 0.0 1.6 0.00 0.00 0.00 78 1007.9
20260506132250 17 304 3.2 3.2 0.00 0.00 0.00 78 1008.2
20260506131748 17 155 0.0 0.0 0.00 0.00 0.00 77 1008.2
20260506131243 17 155 1.6 3.2 0.00 0.00 0.00 77 1008.2
20260506130740 17 192 0.0 0.0 0.00 0.00 0.00 78 1008.5
20260506130237 17 218 1.6 1.6 0.00 0.00 0.00 81 1008.2
20260506125735 17 136 0.0 1.6 0.00 0.00 0.00 79 1008.4
20260506125233 17 301 0.0 0.0 0.00 0.00 0.00 81 1008.4
20260506124731 17 150 0.0 0.0 0.00 0.00 0.00 80 1008.3
20260506124228 17 177 1.6 1.6 0.00 0.00 0.00 79 1008.4
20260506123725 17 165 1.6 1.6 0.00 0.00 0.00 78 1008.4
20260506123224 17 143 0.0 1.6 0.00 0.00 0.00 79 1008.1
20260506122720 17 129 0.0 1.6 0.00 0.00 0.00 79 1008.2
20260506122218 16 253 1.6 1.6 0.00 0.00 0.00 79 1008.2
20260506121716 16 128 0.0 1.6 0.00 0.00 0.00 80 1008.2
20260506121212 16 127 0.0 0.0 0.00 0.00 0.00 84 1008.1
20260506120710 16 112 0.0 0.0 0.00 0.00 0.00 83 1008.4
20260506120207 16 133 0.0 0.0 0.00 0.00 0.00 84 1008.5
20260506115706 16 206 0.0 0.0 0.00 0.00 0.00 82 1008.4
20260506115203 16 104 0.0 0.0 0.00 0.00 0.00 83 1008.5
20260506114700 15 130 0.0 1.6 0.00 0.00 0.00 87 1008.6
20260506114158 15 130 0.0 1.6 0.00 0.00 0.00 87 1008.6
20260506113656 15 197 0.0 0.0 0.00 0.00 0.00 88 1008.6
20260506113154 15 153 0.0 0.0 0.00 0.00 0.00 87 1008.5
20260506112649 15 193 0.0 0.0 0.00 0.00 0.00 87 1008.6
20260506112147 14 197 0.0 0.0 0.00 0.00 0.00 87 1008.6
20260506111645 14 200 0.0 0.0 0.00 0.00 0.00 88 1008.6
20260506111142 14 166 0.0 0.0 0.00 0.00 0.00 89 1008.8
20260506110639 13 196 0.0 0.0 0.00 0.00 0.00 90 1008.6
20260506110137 13 228 0.0 0.0 0.00 0.00 0.00 90 1008.6
20260506105633 13 186 0.0 1.6 0.00 0.00 0.00 89 1008.6
20260506105130 13 176 0.0 0.0 0.00 0.00 0.00 89 1008.7
20260506104628 13 212 0.0 0.0 0.00 0.00 0.00 90 1008.6
20260506104126 13 188 0.0 0.0 0.00 0.00 0.00 90 1008.6
20260506103623 13 185 0.0 0.0 0.00 0.00 0.00 89 1009.0
20260506103120 13 220 0.0 0.0 0.00 0.00 0.00 90 1008.8
20260506102618 12 197 0.0 0.0 0.00 0.00 0.00 90 1008.7
20260506102115 13 188 0.0 1.6 0.00 0.00 0.00 89 1008.6
20260506101611 13 221 0.0 1.6 0.00 0.00 0.00 89 1008.7
20260506101108 12 208 0.0 1.6 0.00 0.00 0.00 89 1008.6
20260506100607 12 229 0.0 0.0 0.00 0.00 0.00 90 1008.5
20260506100104 12 220 0.0 0.0 0.00 0.00 0.00 90 1008.6
20260506095603 12 207 0.0 0.0 0.00 0.00 0.00 89 1008.7
20260506095059 12 229 0.0 0.0 0.00 0.00 0.00 90 1008.7
20260506094557 12 202 0.0 3.2 0.00 0.00 0.00 91 1008.4
20260506094055 12 187 0.0 0.0 0.00 0.00 0.00 90 1008.5
20260506093553 12 165 0.0 0.0 0.00 0.00 0.00 91 1008.6
20260506093050 12 185 0.0 0.0 0.00 0.00 0.00 91 1008.6
20260506092548 12 146 0.0 0.0 0.00 0.00 0.00 90 1008.6
20260506092044 12 144 0.0 0.0 0.00 0.00 0.00 90 1008.5
20260506091543 12 192 0.0 0.0 0.00 0.00 0.00 90 1008.7
20260506091039 12 138 0.0 0.0 0.00 0.00 0.00 90 1008.5
20260506090537 12 144 0.0 0.0 0.00 0.00 0.00 89 1008.5
20260506090033 12 150 0.0 0.0 0.00 0.00 0.00 89 1008.8
20260506085530 12 189 0.0 0.0 0.00 0.00 0.00 89 1008.7
20260506085027 12 160 0.0 0.0 0.00 0.00 0.00 89 1008.7
20260506084524 12 149 0.0 0.0 0.00 0.00 0.00 90 1008.6
20260506084020 13 298 0.0 0.0 0.00 0.00 0.00 90 1008.6
20260506083517 13 122 0.0 0.0 0.00 0.00 0.00 90 1008.6
20260506083015 13 113 0.0 0.0 0.00 0.00 0.00 90 1008.4
20260506082511 13 113 0.0 0.0 0.00 0.00 0.00 90 1008.6
20260506082007 13 116 0.0 0.0 0.00 0.00 0.00 89 1008.6
20260506081505 13 13 0.0 0.0 0.00 0.00 0.00 88 1008.5
20260506081002 13 304 0.0 0.0 0.00 0.00 0.00 86 1008.8
20260506080459 14 302 0.0 0.0 0.00 0.00 0.00 85 1008.7
20260506073443 15 297 0.0 0.0 0.00 0.00 0.00 82 1008.6
20260506072940 15 280 0.0 0.0 0.00 0.00 0.00 81 1008.6
20260506072437 15 162 0.0 0.0 0.00 0.00 0.00 80 1008.5
20260506071936 15 205 0.0 0.0 0.00 0.00 0.00 79 1008.8
20260506071433 15 143 0.0 0.0 0.00 0.00 0.00 79 1008.5
20260506070930 15 143 0.0 0.0 0.00 0.00 0.00 78 1008.7